SAS812 ENBO-ENKR

Flight info

Callsign SAS812
Flight time 1h 3m
Altitude 39000
Route PENNO DCT ABASU T399 UBUKI DCT VIFOF
Aircraft A20N/M-SDE2E3FGHIJ1RWXY/LB1

Departure

Time 2026-05-04 18:26
Airport Bodø Airport (ENBO)

Arrival

Time 2026-05-04 19:29
Airport Kirkenes Airport, Høybuktmoen (ENKR)
Time Latitude Longitude Altitude Speed Heading
2026-05-04 17:50 67.27146 14.36688 49 ft 0 kts 34°
2026-05-04 18:11 67.27142 14.36680 49 ft 2 kts 34°
2026-05-04 18:11 67.27129 14.36659 50 ft 2 kts 34°
2026-05-04 18:11 67.27117 14.36637 50 ft 2 kts 34°
2026-05-04 18:12 67.27104 14.36615 50 ft 2 kts 34°
2026-05-04 18:12 67.27094 14.36596 50 ft 0 kts 34°
2026-05-04 18:13 67.27094 14.36595 50 ft 0 kts 35°
2026-05-04 18:19 67.27095 14.36596 50 ft 0 kts 39°
2026-05-04 18:19 67.27097 14.36612 50 ft 1 kts 86°
2026-05-04 18:19 67.27094 14.36647 51 ft 2 kts 103°
2026-05-04 18:20 67.27084 14.36746 52 ft 9 kts 108°
2026-05-04 18:20 67.27079 14.36899 55 ft 8 kts 78°
2026-05-04 18:20 67.27091 14.37056 55 ft 10 kts 78°
2026-05-04 18:20 67.27108 14.37254 55 ft 11 kts 77°
2026-05-04 18:21 67.27127 14.37468 56 ft 12 kts 77°
2026-05-04 18:21 67.27146 14.37696 57 ft 13 kts 77°
2026-05-04 18:21 67.27161 14.37927 58 ft 13 kts 86°
2026-05-04 18:21 67.27162 14.38129 59 ft 5 kts 89°
2026-05-04 18:22 67.27162 14.38137 59 ft 0 kts 89°
2026-05-04 18:22 67.27162 14.38166 58 ft 3 kts 90°
2026-05-04 18:22 67.27161 14.38251 58 ft 5 kts 94°
2026-05-04 18:22 67.27141 14.38358 58 ft 5 kts 141°
2026-05-04 18:23 67.27130 14.38377 58 ft 0 kts 146°
2026-05-04 18:23 67.27125 14.38385 58 ft 0 kts 150°
2026-05-04 18:23 67.27115 14.38399 58 ft 2 kts 149°
2026-05-04 18:23 67.27093 14.38509 58 ft 13 kts 88°
2026-05-04 18:24 67.27111 14.38794 57 ft 18 kts 78°
2026-05-04 18:24 67.27139 14.39142 58 ft 20 kts 77°
2026-05-04 18:24 67.27172 14.39507 62 ft 16 kts 68°
2026-05-04 18:24 67.27199 14.39693 62 ft 5 kts 111°
2026-05-04 18:25 67.27181 14.39694 62 ft 3 kts 250°
2026-05-04 18:25 67.27181 14.39679 62 ft 1 kts 262°
2026-05-04 18:25 67.27150 14.39278 59 ft 60 kts 258°
2026-05-04 18:25 67.27008 14.37567 62 ft 130 kts 258°
2026-05-04 18:26 67.26787 14.34938 408 ft 157 kts 258°
2026-05-04 18:26 67.26575 14.32219 1191 ft 158 kts 263°
2026-05-04 18:26 67.26715 14.29431 1814 ft 169 kts 303°
2026-05-04 18:26 67.27662 14.27489 2409 ft 185 kts 334°
2026-05-04 18:27 67.28899 14.26059 2951 ft 208 kts 335°
2026-05-04 18:27 67.30250 14.24393 3615 ft 226 kts 333°
2026-05-04 18:27 67.31698 14.22520 4365 ft 242 kts 333°
2026-05-04 18:27 67.33189 14.20536 5352 ft 247 kts 332°
2026-05-04 18:28 67.34695 14.18507 6376 ft 250 kts 332°
2026-05-04 18:28 67.36332 14.16999 7204 ft 262 kts 355°
2026-05-04 18:28 67.38110 14.18034 8021 ft 276 kts 29°
2026-05-04 18:28 67.39478 14.21550 8981 ft 284 kts 51°
2026-05-04 18:29 67.40671 14.25657 9932 ft 288 kts 50°
2026-05-04 18:29 67.41933 14.29765 10595 ft 302 kts 48°
2026-05-04 18:29 67.43308 14.34060 11201 ft 317 kts 48°
2026-05-04 18:29 67.44734 14.38440 12095 ft 322 kts 47°
2026-05-04 18:30 67.47661 14.47338 13911 ft 330 kts 47°
2026-05-04 18:30 67.49146 14.51846 14684 ft 335 kts 47°
2026-05-04 18:30 67.50674 14.56481 15563 ft 340 kts 48°
2026-05-04 18:31 67.52207 14.61122 16450 ft 341 kts 48°
2026-05-04 18:31 67.53741 14.65783 17321 ft 344 kts 50°
2026-05-04 18:31 67.55311 14.70562 18094 ft 348 kts 50°
2026-05-04 18:31 67.56879 14.75347 18840 ft 352 kts 50°
2026-05-04 18:32 67.58481 14.80255 19594 ft 356 kts 50°
2026-05-04 18:32 67.60078 14.85159 20303 ft 360 kts 50°
2026-05-04 18:32 67.61710 14.90183 21024 ft 363 kts 50°
2026-05-04 18:32 67.63334 14.95191 21720 ft 366 kts 50°
2026-05-04 18:33 67.64973 15.00254 22402 ft 369 kts 50°
2026-05-04 18:33 67.66650 15.05439 23091 ft 372 kts 50°
2026-05-04 18:33 67.68310 15.10588 23722 ft 375 kts 50°
2026-05-04 18:33 67.70003 15.15848 24340 ft 378 kts 50°
2026-05-04 18:34 67.71690 15.21106 24911 ft 382 kts 50°
2026-05-04 18:34 67.73388 15.26413 25431 ft 385 kts 50°
2026-05-04 18:34 67.75118 15.31831 25872 ft 388 kts 50°
2026-05-04 18:34 67.76852 15.37273 26281 ft 392 kts 50°
2026-05-04 18:35 67.78625 15.42855 26667 ft 396 kts 50°
2026-05-04 18:35 67.80390 15.48425 27065 ft 400 kts 50°
2026-05-04 18:35 67.82153 15.54004 27406 ft 403 kts 50°
2026-05-04 18:35 67.83948 15.59695 27786 ft 406 kts 50°
2026-05-04 18:36 67.85770 15.65492 28142 ft 409 kts 50°
2026-05-04 18:36 67.87578 15.71252 28512 ft 412 kts 51°
2026-05-04 18:36 67.89423 15.77149 28860 ft 415 kts 51°
2026-05-04 18:36 67.91267 15.83066 29157 ft 419 kts 50°
2026-05-04 18:37 67.93102 15.88963 29462 ft 422 kts 50°
2026-05-04 18:37 67.94974 15.94998 29761 ft 425 kts 50°
2026-05-04 18:37 67.96868 16.01122 30078 ft 428 kts 50°
2026-05-04 18:37 67.98742 16.07194 30337 ft 431 kts 50°
2026-05-04 18:38 68.00655 16.13416 30590 ft 434 kts 50°
2026-05-04 18:38 68.02549 16.19593 30825 ft 437 kts 50°
2026-05-04 18:38 68.04481 16.25909 31058 ft 439 kts 50°
2026-05-04 18:38 68.06401 16.32208 31296 ft 442 kts 50°
2026-05-04 18:39 68.08321 16.38523 31522 ft 445 kts 50°
2026-05-04 18:39 68.10282 16.44996 31801 ft 445 kts 50°
2026-05-04 18:39 68.12226 16.51429 32090 ft 445 kts 50°
2026-05-04 18:39 68.14164 16.57860 32345 ft 446 kts 50°
2026-05-04 18:40 68.16084 16.64250 32587 ft 447 kts 50°
2026-05-04 18:40 68.18035 16.70761 32825 ft 448 kts 51°
2026-05-04 18:40 68.19984 16.77285 33121 ft 449 kts 51°
2026-05-04 18:40 68.21918 16.83778 33459 ft 448 kts 51°
2026-05-04 18:41 68.23850 16.90290 33792 ft 448 kts 51°
2026-05-04 18:41 68.25804 16.96892 34137 ft 447 kts 51°
2026-05-04 18:41 68.27731 17.03424 34469 ft 446 kts 51°
2026-05-04 18:41 68.29644 17.09924 34785 ft 445 kts 51°
2026-05-04 18:42 68.31555 17.16441 35078 ft 444 kts 51°
2026-05-04 18:42 68.33463 17.22964 35341 ft 444 kts 51°
2026-05-04 18:42 68.35351 17.29441 35561 ft 444 kts 51°
2026-05-04 18:42 68.37251 17.35980 35769 ft 444 kts 51°
2026-05-04 18:43 68.39143 17.42508 35951 ft 444 kts 51°
2026-05-04 18:43 68.41060 17.49144 36134 ft 445 kts 51°
2026-05-04 18:43 68.42941 17.55670 36316 ft 445 kts 51°
2026-05-04 18:43 68.44844 17.62297 36501 ft 445 kts 51°
2026-05-04 18:44 68.46733 17.68897 36674 ft 445 kts 52°
2026-05-04 18:44 68.50525 17.82206 36995 ft 445 kts 52°
2026-05-04 18:44 68.52396 17.88800 37169 ft 445 kts 52°
2026-05-04 18:45 68.54295 17.95515 37351 ft 444 kts 52°
2026-05-04 18:45 68.56183 18.02209 37534 ft 444 kts 52°
2026-05-04 18:45 68.58059 18.08879 37716 ft 445 kts 52°
2026-05-04 18:45 68.59914 18.15505 37833 ft 446 kts 52°
2026-05-04 18:46 68.61805 18.22276 37998 ft 446 kts 52°
2026-05-04 18:46 68.63663 18.28947 38151 ft 446 kts 52°
2026-05-04 18:46 68.65550 18.35743 38303 ft 445 kts 52°
2026-05-04 18:46 68.67401 18.42433 38448 ft 446 kts 52°
2026-05-04 18:47 68.69286 18.49262 38436 ft 446 kts 52°
2026-05-04 18:47 68.72998 18.62781 38481 ft 448 kts 52°
2026-05-04 18:48 68.76751 18.76533 38495 ft 455 kts 53°
2026-05-04 18:48 68.80537 18.90497 38474 ft 457 kts 53°
2026-05-04 18:49 68.84345 19.04632 38497 ft 458 kts 53°
2026-05-04 18:49 68.88107 19.18688 38462 ft 457 kts 53°
2026-05-04 18:50 68.91855 19.32785 38458 ft 457 kts 53°
2026-05-04 18:50 68.95606 19.46981 38455 ft 457 kts 53°
2026-05-04 18:51 68.99347 19.61227 38434 ft 457 kts 53°
2026-05-04 18:51 69.03059 19.75455 38422 ft 457 kts 54°
2026-05-04 18:52 69.06766 19.89774 38402 ft 456 kts 54°
2026-05-04 18:52 69.10394 20.04193 38389 ft 456 kts 56°
2026-05-04 18:53 69.13963 20.18746 38388 ft 456 kts 56°
2026-05-04 18:53 69.17528 20.33333 38383 ft 456 kts 55°
2026-05-04 18:54 69.21092 20.47992 38396 ft 456 kts 55°
2026-05-04 18:54 69.24667 20.62787 38403 ft 456 kts 55°
2026-05-04 18:55 69.28194 20.77484 38384 ft 457 kts 56°
2026-05-04 18:55 69.33270 21.00045 38357 ft 457 kts 62°
2026-05-04 18:56 69.35947 21.16300 38363 ft 456 kts 68°
2026-05-04 18:56 69.38287 21.32935 38385 ft 456 kts 69°
2026-05-04 18:57 69.40593 21.49576 38389 ft 456 kts 69°
2026-05-04 18:57 69.42904 21.66319 38388 ft 457 kts 69°
2026-05-04 18:58 69.45208 21.83127 38391 ft 456 kts 69°
2026-05-04 18:58 69.47480 21.99840 38404 ft 456 kts 69°
2026-05-04 18:59 69.49743 22.16633 38416 ft 456 kts 69°
2026-05-04 18:59 69.51978 22.33379 38427 ft 455 kts 69°
2026-05-04 19:00 69.54211 22.50256 38415 ft 456 kts 69°
2026-05-04 19:00 69.56422 22.67138 38429 ft 456 kts 70°
2026-05-04 19:01 69.58627 22.84122 38431 ft 457 kts 70°
2026-05-04 19:01 69.60802 23.01046 38457 ft 456 kts 70°
2026-05-04 19:02 69.62975 23.18115 38476 ft 456 kts 70°
2026-05-04 19:02 69.65124 23.35156 38491 ft 457 kts 70°
2026-05-04 19:03 69.67270 23.52346 38504 ft 457 kts 70°
2026-05-04 19:03 69.69385 23.69456 38513 ft 457 kts 71°
2026-05-04 19:04 69.71486 23.86612 38543 ft 457 kts 71°
2026-05-04 19:04 69.73567 24.03779 38511 ft 457 kts 71°
2026-05-04 19:05 69.74609 24.12438 38311 ft 459 kts 71°
2026-05-04 19:05 69.75643 24.21076 37802 ft 460 kts 71°
2026-05-04 19:05 69.76679 24.29777 37264 ft 461 kts 72°
2026-05-04 19:05 69.77714 24.38510 36669 ft 462 kts 72°
2026-05-04 19:06 69.78745 24.47261 36078 ft 464 kts 71°
2026-05-04 19:06 69.79767 24.55981 35444 ft 467 kts 71°
2026-05-04 19:06 69.80799 24.64832 34813 ft 468 kts 71°
2026-05-04 19:06 69.81842 24.73823 34183 ft 469 kts 72°
2026-05-04 19:07 69.82862 24.82659 33540 ft 470 kts 72°
2026-05-04 19:07 69.83890 24.91614 32959 ft 470 kts 72°
2026-05-04 19:07 69.84905 25.00497 32416 ft 472 kts 72°
2026-05-04 19:07 69.85928 25.09503 31833 ft 475 kts 72°
2026-05-04 19:08 69.86948 25.18527 31355 ft 473 kts 72°
2026-05-04 19:08 69.87959 25.27530 30956 ft 470 kts 72°
2026-05-04 19:08 69.88959 25.36478 30618 ft 465 kts 73°
2026-05-04 19:08 69.89716 25.45417 30401 ft 452 kts 83°
2026-05-04 19:09 69.89841 25.54410 30209 ft 439 kts 95°
2026-05-04 19:09 69.89470 25.62999 30030 ft 433 kts 101°
2026-05-04 19:09 69.88947 25.71679 29852 ft 431 kts 103°
2026-05-04 19:09 69.88416 25.80142 29644 ft 429 kts 103°
2026-05-04 19:10 69.87886 25.88677 29456 ft 427 kts 102°
2026-05-04 19:10 69.87371 25.97093 29151 ft 425 kts 102°
2026-05-04 19:10 69.86866 26.05408 28390 ft 426 kts 102°
2026-05-04 19:10 69.86355 26.13809 27304 ft 434 kts 102°
2026-05-04 19:11 69.85819 26.22575 26081 ft 455 kts 101°
2026-05-04 19:11 69.85267 26.31580 24771 ft 464 kts 101°
2026-05-04 19:11 69.84707 26.40716 24009 ft 458 kts 101°
2026-05-04 19:11 69.84154 26.49666 23022 ft 452 kts 101°
2026-05-04 19:12 69.83601 26.58554 21660 ft 458 kts 101°
2026-05-04 19:12 69.82466 26.76573 19693 ft 454 kts 101°
2026-05-04 19:12 69.81897 26.85475 18621 ft 452 kts 101°
2026-05-04 19:13 69.81341 26.94146 17857 ft 427 kts 102°
2026-05-04 19:13 69.80818 27.02239 17287 ft 398 kts 102°
2026-05-04 19:13 69.80328 27.09769 16756 ft 372 kts 102°
2026-05-04 19:13 69.79861 27.16886 16330 ft 351 kts 102°
2026-05-04 19:14 69.79414 27.23645 15851 ft 339 kts 102°
2026-05-04 19:14 69.78979 27.30185 15437 ft 330 kts 102°
2026-05-04 19:14 69.78540 27.36702 15021 ft 327 kts 103°
2026-05-04 19:14 69.78107 27.43101 14607 ft 325 kts 103°
2026-05-04 19:15 69.77677 27.49418 14244 ft 324 kts 103°
2026-05-04 19:15 69.77245 27.55723 13804 ft 322 kts 103°
2026-05-04 19:15 69.76810 27.62046 13413 ft 320 kts 103°
2026-05-04 19:15 69.76373 27.68348 13010 ft 318 kts 103°
2026-05-04 19:16 69.75944 27.74515 12632 ft 317 kts 103°
2026-05-04 19:16 69.75513 27.80685 12259 ft 315 kts 103°
2026-05-04 19:16 69.75077 27.86886 11853 ft 314 kts 103°
2026-05-04 19:16 69.74644 27.93017 11449 ft 313 kts 103°
2026-05-04 19:17 69.74207 27.99162 11052 ft 313 kts 103°
2026-05-04 19:17 69.73774 28.05223 10632 ft 312 kts 103°
2026-05-04 19:17 69.73338 28.11328 10259 ft 310 kts 103°
2026-05-04 19:17 69.72899 28.17403 9868 ft 308 kts 103°
2026-05-04 19:18 69.72469 28.23376 9603 ft 301 kts 103°
2026-05-04 19:18 69.72053 28.29096 9518 ft 288 kts 103°
2026-05-04 19:18 69.71643 28.34699 9232 ft 283 kts 103°
2026-05-04 19:18 69.71242 28.40138 8887 ft 281 kts 103°
2026-05-04 19:19 69.70835 28.45648 8537 ft 279 kts 103°
2026-05-04 19:19 69.70435 28.51039 8225 ft 276 kts 103°
2026-05-04 19:19 69.70036 28.56379 7913 ft 274 kts 103°
2026-05-04 19:19 69.69637 28.61715 7573 ft 272 kts 103°
2026-05-04 19:20 69.69235 28.67052 7266 ft 270 kts 104°
2026-05-04 19:20 69.68842 28.72238 6964 ft 267 kts 104°
2026-05-04 19:20 69.68449 28.77427 6678 ft 261 kts 104°
2026-05-04 19:20 69.68074 28.82367 6327 ft 249 kts 104°
2026-05-04 19:21 69.67713 28.87093 6059 ft 237 kts 104°
2026-05-04 19:21 69.67361 28.91681 5746 ft 236 kts 104°
2026-05-04 19:21 69.67007 28.96265 5505 ft 236 kts 104°
2026-05-04 19:21 69.66658 29.00783 5214 ft 230 kts 104°
2026-05-04 19:22 69.66315 29.05194 4866 ft 222 kts 103°
2026-05-04 19:22 69.65989 29.09395 4615 ft 209 kts 104°
2026-05-04 19:22 69.65681 29.13345 4417 ft 199 kts 103°
2026-05-04 19:22 69.65382 29.17149 4229 ft 190 kts 104°
2026-05-04 19:23 69.65097 29.20765 4040 ft 185 kts 103°
2026-05-04 19:23 69.64816 29.24331 3987 ft 184 kts 104°
2026-05-04 19:23 69.64533 29.27896 3923 ft 183 kts 104°
2026-05-04 19:23 69.64265 29.31301 3836 ft 166 kts 104°
2026-05-04 19:24 69.64011 29.34494 3795 ft 163 kts 104°
2026-05-04 19:24 69.63757 29.37669 3746 ft 161 kts 104°
2026-05-04 19:24 69.63618 29.40791 3647 ft 157 kts 85°
2026-05-04 19:24 69.63967 29.43701 3630 ft 159 kts 59°
2026-05-04 19:25 69.64638 29.46249 3605 ft 158 kts 52°
2026-05-04 19:25 69.65321 29.48612 3334 ft 154 kts 51°
2026-05-04 19:25 69.66006 29.50977 3113 ft 155 kts 51°
2026-05-04 19:25 69.66693 29.53376 3019 ft 156 kts 52°
2026-05-04 19:26 69.67378 29.55794 2921 ft 156 kts 52°
2026-05-04 19:26 69.68064 29.58251 2819 ft 155 kts 53°
2026-05-04 19:26 69.68645 29.60823 2678 ft 154 kts 61°
2026-05-04 19:26 69.69113 29.63484 2402 ft 147 kts 65°
2026-05-04 19:27 69.69515 29.66101 2164 ft 138 kts 69°
2026-05-04 19:27 69.69862 29.68662 1950 ft 137 kts 70°
2026-05-04 19:27 69.70191 29.71197 1721 ft 136 kts 71°
2026-05-04 19:27 69.70522 29.73741 1490 ft 136 kts 70°
2026-05-04 19:28 69.70849 29.76222 1264 ft 129 kts 70°
2026-05-04 19:28 69.71164 29.78606 1064 ft 127 kts 69°
2026-05-04 19:28 69.71480 29.80978 841 ft 126 kts 69°
2026-05-04 19:28 69.71794 29.83361 611 ft 126 kts 69°
2026-05-04 19:29 69.72099 29.85687 405 ft 125 kts 68°
2026-05-04 19:29 69.72409 29.87991 284 ft 117 kts 68°
2026-05-04 19:29 69.72578 29.89295 286 ft 11 kts 68°
2026-05-04 19:29 69.72592 29.89374 286 ft 3 kts 57°
2026-05-04 19:30 69.72604 29.89446 286 ft 4 kts 106°
2026-05-04 19:30 69.72585 29.89447 288 ft 5 kts 232°
2026-05-04 19:30 69.72553 29.89176 285 ft 16 kts 250°
2026-05-04 19:30 69.72510 29.88807 280 ft 20 kts 251°
2026-05-04 19:31 69.72462 29.88481 280 ft 11 kts 219°
2026-05-04 19:31 69.72406 29.88471 283 ft 6 kts 160°
2026-05-04 19:31 69.72375 29.88503 286 ft 3 kts 160°
2026-05-04 19:31 69.72355 29.88524 287 ft 3 kts 160°
2026-05-04 19:32 69.72329 29.88548 289 ft 4 kts 169°
2026-05-04 19:32 69.72287 29.88510 291 ft 8 kts 230°
2026-05-04 19:32 69.72264 29.88361 292 ft 8 kts 248°
2026-05-04 19:32 69.72244 29.88253 294 ft 5 kts 218°
2026-05-04 19:33 69.72218 29.88239 295 ft 2 kts 163°
2026-05-04 19:33 69.72206 29.88253 296 ft 2 kts 159°
2026-05-04 19:33 69.72192 29.88269 297 ft 1 kts 159°
2026-05-04 19:33 69.72188 29.88273 297 ft 0 kts 159°
2026-05-04 19:34 69.72187 29.88274 297 ft 0 kts 159°